www.pogodaiklimat.ru

Погода и климат >> Архив погоды >> Венгрия >> Сомбатхей


ПОГОДА в Сомбатхее

  • Прогноз погоды в Сомбатхее
  • Монитор погоды в Сомбатхее

АРХИВ ПОГОДЫ в Сомбатхее

Время (UTC), дата Ветер
(напр.,м/с)
 
Видим.   Явления Облачность Т
(С)
Тd
(С)
f
(%)
Тe
(С)
Тes
(С)
Комфортность P
(гПа)
Po
(гПа)
Тmin
(С)
Tmax
(С)
R
(мм)
R24
(мм)
S
(см)
13 15.02 СВ 4
{8}
н/о н/о +8.3 +1.2 61 +5 +5 1034.8 1009.7
14 15.02 СВ 4
{7}
н/о н/о +8.9 +0.9 57 +6 +6 1034.3 1009.3
15 15.02 СВ 3
{7}
30 км 1/0
[Ci sp]
+8.7 +0.9 58 +7 +7 1034.1 1009.1
16 15.02 В 2 н/о н/о +7.0 +1.1 66 +5 +5 1034.4 1009.2
17 15.02 штиль 0 н/о н/о +4.2 +0.4 76 +3 +3 1034.9 1009.5
18 15.02 З 1 8000 м 1/0
[Ci sp]
+2.9 +0.1 82 +1 +1 1035.1 1009.5 +9.2
19 15.02 З 2 н/о н/о +1.7 -0.4 86 -2 -2 1035.0 1009.3
20 15.02 З 2 н/о н/о +0.5 -0.9 90 -3 -3 1035.0 1009.2
21 15.02 З 1 н/о н/о -1.0 -2.1 92 -3 -3 1035.0 1009.1
22 15.02 З 1 н/о н/о -1.0 -2.0 93 -3 -3 1034.7 1008.8
23 15.02 ЮЗ 2 н/о н/о -0.3 -1.0 95 -4 -4 1034.4 1008.6
00 16.02 ЮЗ 2 10 км 4/0
[Ci sp]
-1.4 -2.4 93 -5 -5 1034.2 1008.3
01 16.02 Ю 2 н/о н/о -1.0 -1.7 95 -5 -5 1033.8 1007.9
02 16.02 ЮЗ 1 н/о н/о -1.2 -1.9 95 -4 -4 1033.3 1007.4
03 16.02 ЮЗ 2 12 км 5/0
[Ac lent Ci sp]
-0.6 -1.3 95 -5 -5 1032.8 1007.0
04 16.02 Ю 2 н/о н/о -1.8 -2.6 94 -6 -6 1032.9 1007.0
05 16.02 З 1 н/о н/о -1.5 -2.3 94 -4 -4 1032.7 1006.8
06 16.02 ЮВ 1 13 км 4/0
[Ac lent Ci sp]
-2.5 -3.2 95 -5 -5 1033.0 1007.0 -2.5
07 16.02 штиль 0 н/о н/о -0.5 -1.1 96 -2 -2 1033.1 1007.3
08 16.02 ЮВ 1 н/о н/о +1.9 -0.2 86 0 0 1033.2 1007.6
09 16.02 ЮВ 1 30 км 3/0
[Ci sp]
+5.2 +0.6 72 +4 +4 1032.9 1007.6
10 16.02 ЮВ 1 н/о н/о +7.8 +1.0 62 +7 +7 1032.4 1007.3
11 16.02 ЮВ 2 н/о н/о +10.0 +0.9 53 +9 +9 1031.7 1006.9
12 16.02 Ю 2 35 км 1/0
[Ci sp]
+12.5 +0.6 44 +12 +12 1031.0 1006.4
13 16.02 Ю 3 н/о н/о +13.8 +0.1 39 +13 +13 1030.2 1005.7
14 16.02 Ю 3 н/о н/о +13.9 -0.2 38 +13 +13 1029.8 1005.3
15 16.02 Ю 2 н/о н/о +13.6 -0.8 37 +13 +13 1029.6 1005.1
16 16.02 Ю 2 н/о н/о +10.8 +1.3 52 +10 +10 1029.6 1004.9
17 16.02 Ю 2 н/о н/о +8.1 +0.1 57 +7 +7 1030.3 1005.3
18 16.02 ЮЗ 1 30 км 1/0
[Ci sp]
+6.6 +0.1 63 +6 +6 1030.6 1005.5 +14.1
19 16.02 ЮЗ 1 н/о н/о +3.9 -0.1 75 +3 +3 1030.8 1005.4
20 16.02 З 1 н/о н/о +2.6 -0.7 79 +1 +1 1030.9 1005.4
21 16.02 ЮЗ 1 н/о н/о +1.4 -1.2 83 -0 -0 1031.2 1005.6
22 16.02 ЮЗ 1 н/о н/о +0.1 -1.8 87 -2 -2 1031.1 1005.4
23 16.02 Ю 1 н/о н/о -0.8 -2.4 89 -3 -3 1030.8 1005.0
00 17.02 Ю 1 н/о н/о -0.3 -2.0 88 -2 -2 1030.3 1004.6
01 17.02 Ю 2 н/о н/о -1.2 -2.8 89 -5 -5 1030.0 1004.2
02 17.02 Ю 1 н/о н/о -1.4 -2.8 90 -4 -4 1029.7 1003.9
03 17.02 Ю 2 н/о н/о -1.7 -3.1 90 -6 -6 1029.3 1003.5
04 17.02 Ю 2 н/о н/о -1.7 -3.4 88 -6 -6 1029.3 1003.5
05 17.02 СЗ 1 н/о н/о -2.0 -3.4 90 -4 -4 1029.4 1003.5
06 17.02 штиль 0 30 км 1/0
[Ci fib]
-2.9 -4.2 91 -4 -4 1029.9 1003.9 -3.0
07 17.02 штиль 0 н/о н/о -1.7 -3.0 91 -3 -3 1030.3 1004.4
08 17.02 штиль 0 н/о н/о +1.6 -1.6 79 +1 +1 1030.2 1004.6
09 17.02 Ю 1 25 км 1/0
[Ci fib]
+4.7 -0.3 70 +4 +4 1029.8 1004.5
10 17.02 Ю 1 н/о н/о +7.3 +0.1 60 +7 +7 1029.4 1004.4
11 17.02 ЮВ 1 н/о н/о +10.6 -0.2 47 +11 +11 1028.6 1003.9
12 17.02 ЮВ 2 н/о н/о +12.6 0.0 42 +12 +12 1027.4 1002.9
13 17.02 Ю 3 н/о н/о +14.3 +0.2 38 +14 +14 1026.7 1002.3
14 17.02 ЮВ 2 н/о н/о +14.6 +0.8 39 +15 +15 1026.2 1001.9
15 17.02 ЮВ 2 н/о н/о +14.7 +1.3 40 +15 +15 1025.8 1001.5
16 17.02 Ю 2 н/о н/о +12.4 +0.8 45 +12 +12 1025.8 1001.3
17 17.02 Ю 1 н/о н/о +8.8 0.0 54 +9 +9 1026.4 1001.6
18 17.02 Ю 1 30 км 1/0
[Ci sp]
+5.9 0.0 66 +5 +5 1026.8 1001.7 +15.1
19 17.02 ЮЗ 1 н/о н/о +4.1 -0.3 73 +3 +3 1026.8 1001.6
20 17.02 З 1 н/о н/о +2.6 -0.7 79 +1 +1 1027.3 1001.9
21 17.02 штиль 0 12 км 1/0
[Ci sp]
+1.0 -1.9 81 0 0 1027.4 1001.9
22 17.02 З 1 н/о н/о +0.3 -1.4 88 -2 -2 1027.2 1001.6
23 17.02 ЮЗ 1 н/о н/о -0.3 -1.9 89 -2 -2 1027.1 1001.4
00 18.02 ЮЗ 1 н/о н/о -1.1 -2.4 91 -3 -3 1026.9 1001.2
01 18.02 ЮЗ 1 н/о н/о -1.6 -2.9 91 -4 -4 1026.8 1001.0
02 18.02 ЮЗ 1 н/о н/о -2.1 -3.1 93 -4 -4 1026.4 1000.6
03 18.02 ЮЗ 1 н/о н/о -2.4 -3.2 94 -5 -5 1026.1 1000.3
04 18.02 штиль 0 н/о н/о -2.2 -3.0 94 -3 -3 1026.3 1000.5
05 18.02 штиль 0 н/о н/о -3.3 -4.1 94 -5 -5 1026.1 1000.2
06 18.02 штиль 0 9000 м 3/0
[Ci sp]
-3.5 -4.2 95 -5 -5 1026.3 1000.4 -3.5
07 18.02 штиль 0 н/о н/о -1.7 -2.4 95 -3 -3 1026.8 1001.0
08 18.02 штиль 0 н/о н/о +0.9 -0.9 88 -0 -0 1026.5 1001.0
09 18.02 В 1 12 км 5/0
[Ci sp]
+4.5 +0.3 74 +3 +3 1026.1 1000.9
10 18.02 ЮВ 1 н/о н/о +6.7 +0.8 66 +6 +6 1025.8 1000.8
11 18.02 Ю 2 н/о н/о +9.4 +1.6 58 +8 +8 1024.9 1000.2
12 18.02 Ю 2 18 км 4/0
[Ci sp]
+12.1 +1.4 48 +11 +11 1023.7 999.2
13 18.02 Ю 2 н/о н/о +13.5 +1.5 44 +13 +13 1022.5 998.2
14 18.02 ЮВ 2 н/о н/о +14.2 +0.8 40 +14 +14 1022.0 997.7
15 18.02 Ю 3 н/о н/о +13.7 +1.0 42 +13 +13 1021.7 997.4
16 18.02 Ю 1 н/о н/о +12.2 +1.2 47 +13 +13 1021.5 997.1
17 18.02 ЮВ 2 н/о н/о +8.9 -0.2 53 +8 +8 1022.0 997.3
18 18.02 Ю 1 15 км 4/0
[Ac trans Ci sp]
+6.4 -0.8 60 +6 +6 1022.1 997.2 +14.6
19 18.02 ЮЗ 1 н/о н/о +4.6 -0.6 69 +4 +4 1022.1 997.0
20 18.02 З 1 н/о н/о +2.4 -1.4 76 +1 +1 1022.2 996.9
21 18.02 З 1 н/о н/о +0.7 -2.0 82 -1 -1 1022.1 996.7
22 18.02 З 1 н/о н/о +0.3 -1.9 85 -2 -2 1021.7 996.2
23 18.02 ЮЗ 1 н/о н/о +0.5 -1.9 84 -1 -1 1021.3 995.9
00 19.02 штиль 0 н/о н/о -0.8 -2.5 88 -2 -2 1021.2 995.6
01 19.02 штиль 0 н/о н/о -0.8 -2.4 89 -2 -2 1020.8 995.3
02 19.02 СЗ 1 н/о н/о -1.8 -3.1 91 -4 -4 1020.4 994.8
03 19.02 З 1 н/о н/о -2.1 -3.4 91 -4 -4 1020.2 994.6
04 19.02 ЮЗ 1 н/о н/о -2.9 -3.9 93 -5 -5 1020.2 994.5
05 19.02 СЗ 2 н/о н/о -2.3 -3.0 95 -6 -6 1020.4 994.7
06 19.02 С 1 8000 м 1/0
[Ci sp]
-2.6 -3.4 94 -5 -5 1020.8 995.1 -3.2
07 19.02 СВ 1 н/о н/о +0.4 -0.7 92 -2 -2 1021.1 995.7
08 19.02 СВ 1 н/о н/о +3.3 -0.5 76 +2 +2 1021.0 995.8
09 19.02 В 2 15 км 1/0
[Ci fib]
+5.6 +0.6 70 +3 +3 1021.0 996.0
10 19.02 СВ 1 н/о н/о +7.3 +0.7 63 +7 +7 1021.1 996.3
11 19.02 ЮВ 1 н/о н/о +10.2 +2.1 57 +10 +10 1020.6 996.0
12 19.02 ЮВ 1 13 км 1/0
[Ci fib]
+11.3 +1.5 51 +11 +11 1020.1 995.6
13 19.02 СВ 2 н/о н/о +12.3 +0.1 43 +12 +12 1019.6 995.2
14 19.02 В 2 н/о н/о +13.1 -0.5 39 +13 +13 1019.5 995.2
15 19.02 СВ 1 н/о н/о +13.0 -0.3 40 +14 +14 1019.6 995.3
16 19.02 штиль 0 н/о н/о +11.5 +0.6 47 +11 +11 1019.7 995.3
17 19.02 ЮЗ 1 н/о н/о +7.5 +0.2 60 +7 +7 1020.2 995.4
18 19.02 З 2 8000 м 1/0
[Ci sp]
+5.9 -0.2 65 +4 +4 1020.7 995.8 +13.4
19 19.02 З 2 н/о н/о +4.5 -0.3 71 +2 +2 1020.9 995.8
20 19.02 С 1 н/о н/о +3.5 -0.9 73 +2 +2 1021.3 996.1
21 19.02 З 2 н/о н/о +1.4 -1.2 83 -2 -2 1021.3 995.9
22 19.02 ЮЗ 1 н/о н/о +2.6 -1.2 76 +1 +1 1021.2 996.0
23 19.02 ЮЗ 2 н/о н/о +1.7 -1.2 81 -2 -2 1021.3 996.0
00 20.02 ЮЗ 2 н/о н/о +2.0 -1.6 77 -1 -1 1021.3 996.0
01 20.02 штиль 0 н/о н/о +1.9 -1.2 80 +1 +1 1021.5 996.2
02 20.02 СВ 2 н/о н/о +2.9 -0.9 76 0 0 1021.7 996.5
03 20.02 С 1 н/о н/о +2.3 -0.8 80 +1 +1 1022.2 996.9
04 20.02 штиль 0 н/о н/о +1.5 -0.9 84 0 0 1022.6 997.2
05 20.02 СВ 2 н/о н/о +3.1 +0.8 85 0 0 1022.5 997.3
06 20.02 В 1 18 км 8/5 1200 м
[Sc Ac lent Ci sp]
+4.4 +1.3 80 +3 +3 1023.1 998.0 +0.6
07 20.02 В 1 н/о н/о +4.1 +1.1 81 +3 +3 1023.9 998.7
08 20.02 В 1 н/о н/о +7.3 +2.8 73 +7 +7 1024.1 999.2
09 20.02 СВ 2 17 км 8/3 1200 м
[Sc Ac lent Ci sp]
+9.0 +2.1 62 +8 +8 1024.5 999.7
10 20.02 С 2 н/о н/о +10.5 +2.4 57 +9 +9 1024.5 999.9
11 20.02 С 3 н/о н/о +10.7 +1.8 54 +9 +9 1024.4 999.8
12 20.02 СВ 2 20 км 9/1 1000 м
[Cu med, cong Ac lent Cs]
+11.2 +1.4 51 +10 +10 1024.3 999.7
13 20.02 СВ 3 н/о н/о +11.1 +1.4 51 +10 +10 1024.3 999.7
14 20.02 СВ 3 н/о н/о +10.6 +0.6 50 +9 +9 1024.3 999.7
15 20.02 СВ 1 22 км 6/1 1000 м
[Cu med, cong Ac lent Ci sp]
+10.5 +0.5 50 +11 +11 1024.3 999.7
16 20.02 Ю 1 н/о н/о +8.1 +1.3 62 +8 +8 1024.4 999.6
17 20.02 штиль 0 н/о н/о +7.3 +1.4 66 +7 +7 1025.0 1000.1
18 20.02 штиль 0 16 км 9/0
[Ac lent Cs]
+6.3 +0.8 68 +6 +6 1025.6 1000.6 +11.5
19 20.02 С 1 н/о н/о +4.2 +0.9 79 +3 +3 1026.4 1001.2
20 20.02 штиль 0 н/о н/о +3.8 +0.3 78 +3 +3 1027.0 1001.7
21 20.02 ЮЗ 1 н/о н/о +2.5 -0.3 82 +1 +1 1027.4 1002.0
22 20.02 С 1 н/о н/о +3.0 -0.6 77 +2 +2 1027.5 1002.1
23 20.02 З 1 н/о н/о +1.5 -0.6 86 -0 -0 1027.8 1002.3
00 21.02 штиль 0 н/о н/о +1.2 -0.9 86 0 0 1028.1 1002.6
01 21.02 СЗ 1 н/о н/о -0.2 -1.9 88 -2 -2 1028.6 1002.9
02 21.02 З 1 н/о н/о -0.7 -1.8 92 -3 -3 1028.6 1002.9
03 21.02 З 1 н/о н/о -1.0 -1.8 94 -3 -3 1028.9 1003.1
04 21.02 З 1 н/о н/о -1.5 -2.3 94 -4 -4 1029.3 1003.5
05 21.02 штиль 0 н/о н/о -2.1 -2.9 94 -3 -3 1029.1 1003.2
06 21.02 ЮЗ 1 15 км 5/1 1000 м
[Sc Ac lent Ci sp]
-1.9 -2.6 95 -4 -4 1029.4 1003.5 -2.1
07 21.02 ЮЗ 1 н/о н/о -0.2 -1.0 94 -2 -2 1029.7 1004.0
08 21.02 ЮЗ 3 н/о н/о +5.8 +2.1 77 +3 +3 1029.1 1004.0
09 21.02 ЮЗ 3 16 км 4/3 900 м
[Sc Ci sp]
+9.0 +2.6 64 +7 +7 1028.9 1004.0
10 21.02 ЮЗ 4 н/о н/о +10.3 +1.9 56 +8 +8 1028.3 1003.6
11 21.02 ЮЗ 3 н/о н/о +11.5 +2.5 54 +10 +10 1027.7 1003.1
12 21.02 ЮЗ 3 22 км 6/1 1200 м
[Cu med, cong Ac lent Ci sp]
+12.3 +1.6 48 +11 +11 1026.8 1002.3
13 21.02 ЮЗ 3 н/о н/о +13.4 +1.7 45 +13 +13 1026.1 1001.7
14 21.02 ЮВ 2 н/о н/о +14.1 +1.7 43 +14 +14 1025.6 1001.3
15 21.02 Ю 1 25 км 6/3 1300 м
[Cu med, cong Ac lent Cc]
+13.4 +1.4 44 +14 +14 1025.4 1001.0
16 21.02 штиль 0 н/о н/о +12.3 +1.6 48 +12 +12 1025.3 1000.8
17 21.02 В 1 н/о н/о +10.8 +1.6 53 +11 +11 1025.5 1000.9
18 21.02 СВ 1 20 км 9/3 1200 м
[Sc Ac trans Cs]
+10.3 +1.7 55 +10 +10 1025.7 1001.0 +14.3
19 21.02 СЗ 2 н/о н/о +9.3 +2.4 62 +8 +8 1025.8 1001.0
20 21.02 С 2 н/о н/о +9.4 +3.2 65 +8 +8 1026.1 1001.3
21 21.02 ЮЗ 1 15 км в посл. час дождь 10/4 900 м
[Sc Ac As]
+7.7 +3.9 77 +7 +7 1025.3 1000.4
22 21.02 ЮЗ 1 н/о н/о +8.5 +3.5 71 +8 +8 1024.9 1000.1
23 21.02 СЗ 1 н/о н/о +7.7 +3.6 75 +7 +7 1025.0 1000.1
00 22.02 С 1 20 км {дождь} 9/9 900 м
[Sc]
+7.4 +3.6 77 +7 +7 1025.0 1000.1
01 22.02 штиль 0 н/о н/о +5.7 +3.4 85 +5 +5 1025.0 999.9
02 22.02 штиль 0 н/о н/о +5.7 +3.5 86 +5 +5 1024.1 999.1
03 22.02 З 2 12 км 10/4 800 м
[Sc Ac As]
+5.7 +3.5 86 +3 +3 1023.5 998.5
04 22.02 ЮЗ 1 н/о н/о +6.2 +3.4 82 +5 +5 1023.0 998.0
05 22.02 С 2 н/о н/о +6.3 +3.5 82 +4 +4 1022.9 997.9
06 22.02 С 2 18 км слаб. дождь 10/5 480 м
[Sc Ac As]
+7.5 +4.3 80 +5 +5 1023.2 998.3 +5.1 0.4
07 22.02 СЗ 3
{10}
н/о н/о +8.0 +3.8 75 +5 +5 1023.3 998.5
08 22.02 СЗ 6
{12}
н/о н/о +8.9 +4.1 72 +5 +5 1023.4 998.7
09 22.02 С 8
{14}
н/о н/о +9.8 +4.2 68 +6 +6 1023.9 999.2
10 22.02 С 7
{14}
н/о н/о +9.8 +4.8 71 +6 +6 1024.5 999.8
11 22.02 С 7
{16}
н/о н/о +10.1 +3.8 65 +7 +7 1024.8 1000.1

 

Местоположение метеостанции Сомбатхей (Венгрия): широта 47.27 долгота 16.63 высота над уровнем моря 221 м.

В архиве по умолчанию представлена погода в Сомбатхее за последнюю неделю. Архивные данные за месяц целиком и за предыдущие месяцы, начиная с января 2011 года, Вы можете получить, выбрав интересующий диапазон дат из раскрывающегося списка и нажав кнопку "Ввод!".


*Определитесь, кто Вы:
робот инопланетянин человек

Внимание! Время в таблицах - всемирное. Для получения местного времени необходимо прибавить поправку, которая равна 1 ч.

Смотрите также архив погоды в соседних городах и на ближайших метеорологических станциях:

Погода в Луцмансбурге (Австрия) (22 км)
Погода в Кляйнциккене (Австрия) (24 км)
Погода в Бад-Тацмансдорфе (Австрия) (32 км)
Погода в Крумбахе (Австрия) (44 км)
Погода в Сентготтхарде (Венгрия) (45 км)
Погода в Шопроне (Венгрия) (46 км)
Погода в Залаэгерсеге (Венгрия) (46 км)
Погода в Хартберге (Австрия) (49 км)
Погода в Мёнихкирхене (Австрия) (53 км)
Погода в Андау (Австрия) (63 км)

Пояснения к столбцам:

Ветер - указаны скорость ветра в м/с - средняя за 10 мин, порывы в срок и между сроками (в фигурных скобках) и направление, откуда дует ветер: С - северный, СВ - северо-восточный, В - восточный, ЮВ - юго-восточный, Ю - южный, ЮЗ - юго-западный, З - западный, СЗ - северо-западный.
Видимость - горизонтальная дальность видимости в метрах или километрах. При видимости от 1 до 10 км при отсутствии осадков обычно наблюдается дымка, при ухудшении видимости до 1 км и менее - туман. В сухую погоду видимость может ухудшаться дымом, пылью или мглою.
Явления - указаны атмосферные явления, наблюдавшиеся в срок или в последний час перед сроком; фигурными скобками обозначены явления, наблюдавшиеся между сроками (за 1-3 часа до срока); квадратными скобками обозначены град или гололедные отложения с указанием их диаметра в мм.
Облачность - указаны через наклонную черту общая и нижняя облачность в баллах и высота нижней границы облаков в метрах; квадратными скобками обозначены формы облаков: Ci - перистые, Cs - перисто-слоистые, Cc - перисто-кучевые, Ac - высококучевые, As - высокослоистые, Sc - слоисто-кучевые, Ns - слоисто-дождевые, Cu - кучевые, Cb - кучево-дождевые. Подробнее классификацию облаков см. в Атласе облаков (PDF).
T - Температура воздуха - температура, измеренная на высоте 2 м над землей.
Td - Температура точки росы - температура, при понижении до которой содержащийся в воздухе водяной пар достигнет насыщения.
f - Относительная влажность воздуха - влажноcть воздуха, измеренная на высоте 2 м над землей.
Te - Эффективная температура - температура, которую ощущает одетый по сезону человек в тени. Характеристика душности погоды. При расчете учитывается влияние влажности воздуха и скорости ветра на теплоощущения человека.
Tes - Эффективная температура на солнце - температура, которую ощущает человек, с поправкой на солнечный нагрев. Характеристика знойности погоды. Зависит от высоты солнца над горизонтом, облачности и скорости ветра. Ночью, в пасмурную погоду, а также при ветре 12 м/с и более поправка равна нулю.
P - Атмосферное давление - приведенное к уровню моря атмосферное давление.
Po - Атмосферное давление - измеренное на уровне метеостанции атмосферное давление.
Tmin - Минимальная температура - минимум температуры воздуха на высоте 2 м над землей.
Tmax - Максимальная температура - максимум температуры воздуха на высоте 2 м над землей.
R - Количество осадков - Количество выпавших осадков за период времени, мм. При наведении курсора мыши на число - период времени, за который выпало указанное количество осадков.
R24 - Количество осадков - Количество выпавших осадков за 24 часа, мм.
S - Снежный покров - Высота снежного покрова, см. При наведении курсора мыши на число - состояние снежного покрова и степень покрытия местности в баллах.